TimeEDT,TemperatureF,Dew PointF,Humidity,Sea Level PressureIn,VisibilityMPH,Wind Direction,Wind SpeedMPH,Gust SpeedMPH,PrecipitationIn,Events,Conditions,WindDirDegrees,DateUTC
12:54 AM,61.0,57.9,90,30.02,10.0,East,5.8,-,0.00,Rain,Light Rain,90,2013-10-06 04:54:00
1:30 AM,60.8,59.0,94,30.01,10.0,ESE,6.9,-,0.00,,Overcast,110,2013-10-06 05:30:00
1:54 AM,61.0,59.0,93,30.02,10.0,East,5.8,-,0.00,,Overcast,90,2013-10-06 05:54:00
2:32 AM,60.8,59.0,94,30.00,7.0,East,5.8,-,0.00,Rain,Light Rain,90,2013-10-06 06:32:00
2:54 AM,61.0,60.1,97,30.00,5.0,East,8.1,-,0.02,Rain,Light Rain,100,2013-10-06 06:54:00
3:54 AM,61.0,60.1,97,29.99,3.0,ENE,5.8,-,0.07,Rain,Rain,70,2013-10-06 07:54:00
4:19 AM,60.8,60.8,100,29.97,8.0,East,5.8,-,0.02,,Overcast,90,2013-10-06 08:19:00
4:54 AM,61.0,60.1,97,29.97,7.0,ESE,6.9,-,0.02,,Overcast,110,2013-10-06 08:54:00
5:54 AM,62.1,60.1,93,29.97,9.0,ESE,4.6,-,N/A,,Overcast,120,2013-10-06 09:54:00
6:17 AM,62.6,60.8,94,29.95,10.0,ESE,3.5,-,N/A,,Overcast,120,2013-10-06 10:17:00
6:54 AM,62.1,60.1,93,29.96,10.0,SE,3.5,-,N/A,,Overcast,130,2013-10-06 10:54:00
7:33 AM,62.6,60.8,94,29.94,10.0,Calm,Calm,-,N/A,,Mostly Cloudy,0,2013-10-06 11:33:00
7:54 AM,63.0,61.0,93,29.95,10.0,SE,4.6,-,N/A,,Overcast,130,2013-10-06 11:54:00
8:16 AM,62.6,60.8,94,29.93,10.0,ESE,5.8,-,N/A,,Mostly Cloudy,120,2013-10-06 12:16:00
8:54 AM,64.0,62.1,93,29.94,10.0,SE,3.5,-,N/A,,Mostly Cloudy,140,2013-10-06 12:54:00
9:54 AM,66.0,63.0,90,29.93,4.0,SE,5.8,-,0.01,Rain,Rain,140,2013-10-06 13:54:00
10:54 AM,66.9,64.9,93,29.93,10.0,Calm,Calm,-,0.03,,Overcast,0,2013-10-06 14:54:00
11:35 AM,66.2,64.4,94,29.93,10.0,WNW,9.2,-,0.00,Rain-Thunderstorm,Light Thunderstorms and Rain,300,2013-10-06 15:35:00
11:41 AM,66.2,64.4,94,29.92,0.5,SW,5.8,-,0.01,Rain-Thunderstorm,Thunderstorms and Rain,230,2013-10-06 15:41:00
11:54 AM,68.0,66.9,96,29.92,0.8,Calm,Calm,-,0.32,Rain-Thunderstorm,Thunderstorms and Rain,0,2013-10-06 15:54:00
12:01 PM,68.0,66.2,94,29.90,1.0,SE,3.5,-,0.09,Rain-Thunderstorm,Thunderstorms and Rain,130,2013-10-06 16:01:00
12:06 PM,69.8,66.2,88,29.90,4.0,SSE,3.5,-,0.09,Rain,Light Rain,160,2013-10-06 16:06:00
12:54 PM,73.0,69.1,87,29.89,10.0,SSE,4.6,-,0.09,,Mostly Cloudy,150,2013-10-06 16:54:00
1:54 PM,75.0,70.0,84,29.86,10.0,SE,8.1,-,N/A,,Mostly Cloudy,130,2013-10-06 17:54:00
2:54 PM,79.0,71.1,77,29.84,10.0,East,5.8,-,N/A,,Mostly Cloudy,90,2013-10-06 18:54:00
3:54 PM,82.0,69.1,65,29.81,10.0,South,8.1,-,N/A,,Mostly Cloudy,190,2013-10-06 19:54:00
4:54 PM,81.0,70.0,69,29.80,10.0,SE,3.5,-,N/A,,Mostly Cloudy,130,2013-10-06 20:54:00
5:54 PM,79.0,71.1,77,29.79,10.0,SE,4.6,-,N/A,,Mostly Cloudy,130,2013-10-06 21:54:00
6:54 PM,77.0,68.0,74,29.79,10.0,SE,5.8,-,N/A,,Mostly Cloudy,140,2013-10-06 22:54:00
7:54 PM,75.9,66.9,74,29.79,10.0,SSE,4.6,-,N/A,,Mostly Cloudy,150,2013-10-06 23:54:00
8:54 PM,75.9,64.9,69,29.78,10.0,South,10.4,-,N/A,,Mostly Cloudy,180,2013-10-07 00:54:00
9:54 PM,75.9,64.9,69,29.78,10.0,South,12.7,-,N/A,,Scattered Clouds,180,2013-10-07 01:54:00
10:54 PM,75.0,64.9,71,29.77,10.0,South,12.7,-,N/A,,Scattered Clouds,170,2013-10-07 02:54:00
11:54 PM,75.0,64.0,69,29.75,10.0,South,13.8,25.3,N/A,,Scattered Clouds,170,2013-10-07 03:54:00